{"data":{"norad_id":43023,"intl_designator":"2017-074B","name":"JILIN-1 05","alt_names":[],"object_type":"PAYLOAD","status":"ACTIVE","operator":null,"country":"PRC","launch_date":"2017-11-21","launch_site_code":"TAISC","launch_vehicle":null,"mission":null,"orbit_class":"UNKNOWN","rcs_meters":null,"size_class":null,"mass_kg":null,"dimensions":null,"purposes":[],"wikipedia_slug":null,"has_3d_model":false,"image_url":null,"decayed_at":null,"tle_current":{"epoch":"2026-05-25T05:17:16.270080Z","epoch_age_seconds":56830,"freshness":"FRESH","line1":"1 43023U 17074B   26145.22032720  .00007896  00000+0  24653-3 0  9999","line2":"2 43023  97.4839 251.0739 0003991 320.6171  39.4780 15.33466989470481","mean_motion":15.33466989,"eccentricity":0.0003991,"inclination_deg":97.4839,"raan_deg":251.0739,"arg_perigee_deg":320.6171,"mean_anomaly_deg":39.478,"bstar":0.00024653,"rev_number":47048,"period_min":93.904858097992,"perigee_km":462.74646481918,"apogee_km":468.2090381138,"semimajor_km":6843.6147514665,"source":"CELESTRAK","updated_at":"2026-05-25T13:37:55.755925Z"}}}